| time (UTC) | temp F | wind direction | speed MPH | gust MPH | rain 1hr in | rain 24hr in | rain mn in | humidity % | barometer mb |
| 20260504213730 | 52 | 48 | 0.0 | 0.0 | 0.00 | 2.46 | 2.46 | 93 | 1017.3 |
| 20260504213226 | 52 | 48 | 0.0 | 0.0 | 0.00 | 2.46 | 2.46 | 93 | 1017.4 |
| 20260504212723 | 52 | 51 | 0.0 | 0.0 | 0.00 | 2.46 | 2.46 | 93 | 1017.3 |
| 20260504212219 | 52 | 8 | 0.0 | 0.0 | 0.00 | 2.46 | 2.46 | 93 | 1017.5 |
| 20260504211717 | 52 | 355 | 1.0 | 1.0 | 0.00 | 2.46 | 2.46 | 93 | 1017.4 |
| 20260504211212 | 52 | 26 | 0.0 | 0.0 | 0.00 | 2.46 | 2.46 | 93 | 1017.3 |
| 20260504210710 | 52 | 336 | 0.0 | 0.0 | 0.00 | 2.46 | 2.46 | 93 | 1017.4 |
| 20260504210207 | 52 | 42 | 0.0 | 0.0 | 0.00 | 2.46 | 2.46 | 94 | 1017.2 |
| 20260504205704 | 52 | 81 | 0.0 | 0.0 | 0.00 | 2.46 | 2.46 | 93 | 1017.4 |
| 20260504205201 | 53 | 38 | 0.0 | 0.0 | 0.00 | 2.46 | 2.46 | 94 | 1017.5 |
| 20260504204700 | 53 | 57 | 0.0 | 0.0 | 0.00 | 2.46 | 2.46 | 93 | 1017.4 |
| 20260504204158 | 53 | 53 | 0.0 | 0.0 | 0.00 | 2.46 | 2.46 | 93 | 1017.3 |
| 20260504203656 | 52 | 8 | 0.0 | 0.0 | 0.00 | 2.46 | 2.46 | 94 | 1017.3 |
| 20260504203154 | 52 | 41 | 0.0 | 0.0 | 0.00 | 2.46 | 2.46 | 94 | 1017.4 |
| 20260504202648 | 53 | 25 | 0.0 | 0.0 | 0.00 | 2.46 | 2.46 | 94 | 1017.1 |
| 20260504202146 | 53 | 39 | 0.0 | 0.0 | 0.00 | 2.46 | 2.46 | 95 | 1017.5 |
| 20260504201642 | 52 | 39 | 0.0 | 0.0 | 0.00 | 2.46 | 2.46 | 95 | 1017.3 |
| 20260504201140 | 52 | 28 | 0.0 | 0.0 | 0.00 | 2.46 | 2.46 | 94 | 1017.3 |
| 20260504200637 | 53 | 13 | 0.0 | 0.0 | 0.00 | 2.46 | 2.46 | 94 | 1017.1 |
| 20260504200133 | 53 | 0 | 0.0 | 0.0 | 0.00 | 2.46 | 2.46 | 94 | 1017.2 |
| 20260504195630 | 53 | 62 | 0.0 | 0.0 | 0.00 | 2.46 | 2.46 | 94 | 1017.2 |
| 20260504195126 | 53 | 6 | 0.0 | 0.0 | 0.00 | 2.46 | 2.46 | 94 | 1017.2 |
| 20260504194623 | 52 | 25 | 0.0 | 0.0 | 0.07 | 2.46 | 2.46 | 94 | 1017.2 |
| 20260504194119 | 52 | 44 | 0.0 | 0.0 | 0.07 | 2.46 | 2.46 | 94 | 1017.4 |
| 20260504193615 | 52 | 44 | 0.0 | 0.0 | 0.00 | 2.45 | 2.45 | 93 | 1017.3 |
| 20260504193114 | 52 | 53 | 0.0 | 0.0 | 0.00 | 2.45 | 2.45 | 93 | 1017.3 |
| 20260504192611 | 53 | 51 | 0.0 | 0.0 | 0.00 | 2.45 | 2.45 | 92 | 1017.3 |
| 20260504192109 | 53 | 260 | 1.0 | 2.0 | 0.00 | 2.45 | 2.45 | 91 | 1017.4 |
| 20260504191608 | 53 | 36 | 0.0 | 0.0 | 0.00 | 2.45 | 2.45 | 90 | 1017.2 |
| 20260504191103 | 53 | 38 | 0.0 | 0.0 | 0.00 | 2.45 | 2.45 | 91 | 1017.4 |
| 20260504190559 | 53 | 62 | 0.0 | 0.0 | 0.00 | 2.45 | 2.45 | 90 | 1017.3 |
| 20260504190055 | 54 | 25 | 0.0 | 0.0 | 0.00 | 2.45 | 2.45 | 92 | 1017.4 |
| 20260504185553 | 54 | 47 | 0.0 | 0.0 | 0.05 | 2.45 | 2.45 | 91 | 1017.5 |
| 20260504185044 | 54 | 39 | 0.0 | 0.0 | 0.24 | 2.45 | 2.45 | 89 | 1017.4 |
| 20260504184539 | 55 | 322 | 1.0 | 1.0 | 0.24 | 2.45 | 2.45 | 86 | 1017.5 |
| 20260504184035 | 55 | 259 | 3.0 | 4.0 | 0.00 | 2.41 | 2.41 | 83 | 1017.5 |
| 20260504183532 | 55 | 255 | 0.0 | 1.0 | 0.00 | 2.41 | 2.41 | 85 | 1017.5 |
| 20260504183031 | 54 | 221 | 0.0 | 2.0 | 0.00 | 2.41 | 2.41 | 88 | 1017.5 |
| 20260504182527 | 54 | 51 | 0.0 | 0.0 | 0.00 | 2.41 | 2.41 | 89 | 1017.3 |
| 20260504182025 | 53 | 61 | 0.0 | 0.0 | 0.00 | 2.41 | 2.41 | 90 | 1017.4 |
| 20260504181521 | 53 | 42 | 0.0 | 0.0 | 0.00 | 2.41 | 2.41 | 89 | 1017.2 |
| 20260504181020 | 53 | 36 | 0.0 | 0.0 | 0.00 | 2.41 | 2.41 | 89 | 1017.1 |
| 20260504180518 | 54 | 301 | 0.0 | 0.0 | 0.00 | 2.41 | 2.41 | 88 | 1017.0 |
| 20260504180017 | 54 | 55 | 0.0 | 0.0 | 0.00 | 2.41 | 2.41 | 88 | 1017.0 |
| 20260504175514 | 53 | 72 | 0.0 | 0.0 | 0.00 | 2.41 | 2.41 | 90 | 1017.2 |
| 20260504175011 | 53 | 28 | 0.0 | 0.0 | 0.00 | 2.41 | 2.41 | 90 | 1017.1 |
| 20260504174509 | 54 | 44 | 0.0 | 0.0 | 0.00 | 2.41 | 2.41 | 90 | 1017.2 |
| 20260504174005 | 53 | 40 | 0.0 | 0.0 | 0.00 | 2.41 | 2.41 | 92 | 1016.9 |
| 20260504173502 | 53 | 46 | 0.0 | 0.0 | 0.00 | 2.41 | 2.41 | 92 | 1017.0 |
| 20260504173000 | 53 | 60 | 0.0 | 0.0 | 0.00 | 2.41 | 2.41 | 92 | 1016.9 |
| 20260504172455 | 53 | 22 | 0.0 | 0.0 | 0.00 | 2.41 | 2.41 | 92 | 1016.8 |
| 20260504171952 | 53 | 47 | 0.0 | 0.0 | 0.00 | 2.41 | 2.41 | 92 | 1017.0 |
| 20260504171449 | 53 | 59 | 0.0 | 0.0 | 0.00 | 2.41 | 2.41 | 92 | 1016.9 |
| 20260504170946 | 53 | 42 | 0.0 | 0.0 | 0.00 | 2.41 | 2.41 | 92 | 1016.9 |
| 20260504170442 | 53 | 31 | 0.0 | 0.0 | 0.00 | 2.41 | 2.41 | 92 | 1016.9 |
| 20260504160402 | 56 | 62 | 0.0 | 0.0 | 0.00 | 2.39 | 2.39 | 83 | 1016.7 |
| 20260504150826 | 58 | 76 | 1.0 | 2.0 | 0.00 | 2.39 | 2.39 | 80 | 1016.3 |
| 20260504150322 | 59 | 99 | 4.0 | 4.0 | 0.00 | 2.39 | 2.39 | 79 | 1016.4 |
| 20260504141252 | 59 | 281 | 0.0 | 1.0 | 0.00 | 2.39 | 2.39 | 75 | 1016.0 |
| 20260504140749 | 59 | 117 | 1.0 | 2.0 | 0.00 | 2.39 | 2.39 | 75 | 1015.9 |
| 20260504140245 | 59 | 306 | 0.0 | 1.0 | 0.00 | 2.39 | 2.39 | 76 | 1015.9 |
| 20260504042204 | 57 | 270 | 9.0 | 10.0 | 0.05 | 2.17 | 2.17 | 90 | 1014.6 |
| 20260504041700 | 57 | 270 | 9.0 | 10.0 | 0.05 | 2.17 | 2.17 | 90 | 1014.6 |
| 20260504041156 | 57 | 259 | 9.0 | 15.0 | 0.12 | 2.17 | 2.17 | 92 | 1014.0 |
| 20260504040653 | 57 | 220 | 4.0 | 4.0 | 0.14 | 2.16 | 2.16 | 93 | 1014.2 |
| 20260504040150 | 57 | 249 | 7.0 | 10.0 | 0.19 | 2.15 | 2.15 | 93 | 1014.4 |
| 20260504035647 | 56 | 287 | 5.0 | 8.0 | 0.17 | 2.14 | 2.14 | 94 | 1014.3 |
| 20260504035144 | 57 | 230 | 1.0 | 2.0 | 0.28 | 2.12 | 2.12 | 95 | 1014.3 |
| 20260504034641 | 57 | 2 | 3.0 | 6.0 | 0.35 | 2.12 | 2.12 | 96 | 1014.6 |
| 20260504034138 | 58 | 316 | 3.0 | 6.0 | 0.28 | 2.08 | 2.08 | 96 | 1014.4 |
| 20260504033636 | 57 | 70 | 1.0 | 1.0 | 0.26 | 2.05 | 2.05 | 95 | 1014.2 |
| 20260504033133 | 57 | 215 | 2.0 | 3.0 | 0.14 | 2.03 | 2.03 | 95 | 1014.0 |
| 20260504032630 | 57 | 78 | 1.0 | 3.0 | 0.05 | 2.01 | 2.01 | 94 | 1014.3 |
| 20260504032127 | 57 | 208 | 9.0 | 14.0 | 0.05 | 2.01 | 2.01 | 95 | 1014.1 |
| 20260504031624 | 56 | 257 | 9.0 | 13.0 | 0.07 | 2.00 | 2.00 | 96 | 1014.2 |
| 20260504031120 | 56 | 206 | 3.0 | 3.0 | 0.19 | 2.00 | 2.00 | 96 | 1014.4 |
| 20260504030617 | 57 | 258 | 9.0 | 13.0 | 0.17 | 1.99 | 1.99 | 97 | 1014.3 |
| 20260504030114 | 57 | 236 | 3.0 | 4.0 | 0.05 | 1.97 | 1.97 | 97 | 1014.2 |
| 20260504025610 | 57 | 252 | 6.0 | 10.0 | 0.12 | 1.96 | 1.96 | 97 | 1014.4 |
| 20260504025108 | 57 | 252 | 3.0 | 6.0 | 0.24 | 1.96 | 1.96 | 97 | 1014.3 |
| 20260504024605 | 57 | 307 | 8.0 | 10.0 | 0.42 | 1.94 | 1.94 | 97 | 1014.3 |
| 20260504024101 | 57 | 252 | 9.0 | 11.0 | 0.54 | 1.92 | 1.92 | 97 | 1014.4 |
| 20260504023558 | 59 | 252 | 9.0 | 16.0 | 0.47 | 1.88 | 1.88 | 97 | 1014.4 |
| 20260504023054 | 59 | 208 | 3.0 | 6.0 | 0.50 | 1.83 | 1.83 | 97 | 1014.4 |
| 20260504022550 | 59 | 202 | 3.0 | 6.0 | 0.54 | 1.80 | 1.80 | 97 | 1013.9 |
| 20260504022046 | 59 | 229 | 5.0 | 6.0 | 0.54 | 1.76 | 1.76 | 96 | 1014.1 |
| 20260504021544 | 59 | 268 | 4.0 | 4.0 | 0.47 | 1.71 | 1.71 | 96 | 1014.1 |
| 20260504021041 | 59 | 351 | 0.0 | 0.0 | 0.54 | 1.67 | 1.67 | 97 | 1014.3 |
| 20260504020538 | 59 | 30 | 0.0 | 1.0 | 0.47 | 1.63 | 1.63 | 97 | 1014.1 |
| 20260504020034 | 59 | 74 | 1.0 | 1.0 | 0.71 | 1.58 | 1.58 | 97 | 1014.1 |
| 20260504015530 | 59 | 240 | 4.0 | 8.0 | 0.85 | 1.55 | 1.55 | 97 | 1014.4 |
| 20260504015026 | 59 | 205 | 6.0 | 9.0 | 0.66 | 1.48 | 1.48 | 97 | 1014.5 |
| 20260504014523 | 59 | 258 | 3.0 | 4.0 | 0.42 | 1.41 | 1.41 | 97 | 1014.4 |
| 20260504014020 | 59 | 239 | 1.0 | 2.0 | 0.42 | 1.37 | 1.37 | 96 | 1014.0 |
| 20260504013518 | 59 | 248 | 2.0 | 4.0 | 0.35 | 1.34 | 1.34 | 97 | 1014.1 |
| 20260504013014 | 59 | 164 | 1.0 | 1.0 | 0.42 | 1.30 | 1.30 | 97 | 1014.3 |
| 20260504012512 | 59 | 57 | 1.0 | 1.0 | 0.40 | 1.27 | 1.27 | 97 | 1014.1 |
| 20260504012010 | 59 | 234 | 2.0 | 2.0 | 0.47 | 1.23 | 1.23 | 97 | 1014.3 |
| 20260504011506 | 59 | 187 | 5.0 | 6.0 | 0.78 | 1.20 | 1.20 | 97 | 1014.2 |
| 20260504011002 | 59 | 263 | 0.0 | 1.0 | 1.44 | 1.15 | 1.15 | 97 | 1014.3 |
| 20260504010458 | 59 | 144 | 1.0 | 2.0 | 1.63 | 1.07 | 1.07 | 97 | 1014.4 |
| 20260504005954 | 60 | 54 | 3.0 | 4.0 | 1.32 | 0.90 | 0.90 | 97 | 1014.3 |
| 20260504005451 | 60 | 204 | 4.0 | 6.0 | 1.04 | 0.79 | 0.79 | 97 | 1014.3 |
| 20260504004949 | 60 | 36 | 2.0 | 2.0 | 0.94 | 0.69 | 0.69 | 97 | 1014.1 |
| 20260504004446 | 60 | 96 | 0.0 | 0.0 | 1.02 | 0.64 | 0.64 | 97 | 1013.9 |
| 20260504003943 | 60 | 24 | 0.0 | 1.0 | 0.78 | 0.52 | 0.52 | 97 | 1014.1 |
| 20260504003439 | 60 | 85 | 0.0 | 1.0 | 0.54 | 0.46 | 0.46 | 97 | 1014.1 |
| 20260504002936 | 60 | 265 | 0.0 | 0.0 | 0.42 | 0.39 | 0.39 | 97 | 1014.1 |
| 20260504002433 | 60 | 86 | 0.0 | 1.0 | 0.40 | 0.36 | 0.36 | 97 | 1014.2 |
| 20260504001930 | 60 | 52 | 1.0 | 1.0 | 0.47 | 0.32 | 0.32 | 97 | 1014.3 |
| 20260504001428 | 60 | 90 | 0.0 | 0.0 | 0.42 | 0.29 | 0.29 | 96 | 1014.3 |
| 20260504000924 | 60 | 7 | 2.0 | 3.0 | 0.35 | 0.24 | 0.24 | 97 | 1014.4 |
| 20260504000423 | 61 | 85 | 0.0 | 1.0 | 0.24 | 0.22 | 0.22 | 97 | 1014.3 |
| 20260503235919 | 61 | 78 | 1.0 | 2.0 | 0.07 | 0.18 | 0.18 | 97 | 1014.5 |
| 20260503235416 | 61 | 39 | 1.0 | 2.0 | 0.19 | 0.18 | 0.18 | 97 | 1014.6 |
| 20260503234914 | 61 | 131 | 3.0 | 7.0 | 0.24 | 0.17 | 0.17 | 97 | 1014.5 |
| 20260503234411 | 60 | 104 | 3.0 | 3.0 | 0.35 | 0.15 | 0.15 | 97 | 1014.5 |
| 20260503233909 | 60 | 93 | 3.0 | 4.0 | 0.31 | 0.13 | 0.13 | 96 | 1014.4 |
| 20260503233405 | 61 | 83 | 1.0 | 4.0 | 0.12 | 0.09 | 0.09 | 96 | 1014.6 |
| 20260503232902 | 60 | 55 | 0.0 | 1.0 | 0.19 | 0.09 | 0.09 | 96 | 1014.7 |
| 20260503232359 | 61 | 144 | 1.0 | 2.0 | 0.19 | 0.07 | 0.07 | 96 | 1014.5 |
| 20260503231857 | 61 | 128 | 1.0 | 2.0 | 0.26 | 0.05 | 0.05 | 96 | 1014.7 |
| 20260503231354 | 61 | 69 | 0.0 | 1.0 | 0.24 | 0.04 | 0.04 | 96 | 1014.6 |
| 20260503230850 | 61 | 240 | 4.0 | 7.0 | 0.19 | 0.02 | 0.02 | 96 | 1014.6 |
| 20260503230346 | 61 | 56 | 4.0 | 6.0 | 0.07 | 0.00 | 0.00 | 95 | 1015.1 |
| 20260503225844 | 61 | 76 | 3.0 | 6.0 | 0.00 | 0.12 | 0.12 | 95 | 1015.1 |
| 20260503225340 | 61 | 242 | 2.0 | 3.0 | 0.00 | 0.12 | 0.12 | 95 | 1015.2 |
| 20260503224836 | 61 | 75 | 0.0 | 0.0 | 0.00 | 0.12 | 0.12 | 95 | 1015.1 |
| 20260503224334 | 61 | 61 | 0.0 | 0.0 | 0.00 | 0.12 | 0.12 | 95 | 1014.7 |
| 20260503223831 | 61 | 51 | 0.0 | 1.0 | 0.00 | 0.12 | 0.12 | 95 | 1015.2 |
| 20260503223329 | 61 | 108 | 3.0 | 6.0 | 0.00 | 0.12 | 0.12 | 95 | 1014.9 |
| 20260503222824 | 61 | 57 | 4.0 | 6.0 | 0.00 | 0.12 | 0.12 | 95 | 1015.2 |
| 20260503222323 | 61 | 75 | 2.0 | 3.0 | 0.00 | 0.12 | 0.12 | 95 | 1014.8 |
| 20260503221821 | 61 | 86 | 2.0 | 2.0 | 0.00 | 0.12 | 0.12 | 95 | 1014.9 |
| 20260503221320 | 61 | 68 | 1.0 | 3.0 | 0.00 | 0.12 | 0.12 | 95 | 1015.2 |
| 20260503220815 | 61 | 86 | 0.0 | 1.0 | 0.00 | 0.12 | 0.12 | 94 | 1015.4 |
| 20260503220312 | 61 | 87 | 4.0 | 4.0 | 0.00 | 0.12 | 0.12 | 95 | 1015.4 |
| 20260503215808 | 61 | 72 | 1.0 | 2.0 | 0.00 | 0.12 | 0.12 | 95 | 1015.3 |
| 20260503215306 | 61 | 38 | 2.0 | 2.0 | 0.00 | 0.12 | 0.12 | 95 | 1015.2 |
| 20260503214804 | 61 | 100 | 5.0 | 7.0 | 0.00 | 0.12 | 0.12 | 95 | 1015.3 |
| 20260503214300 | 61 | 92 | 1.0 | 2.0 | 0.00 | 0.12 | 0.12 | 95 | 1015.6 |